This demonstration page uses our WeatherBlox Daily Observations layout. Learn more.

Left ArrowRight Arrow

Hourly Observations for December 31, 2016

Temp ( °F °C ) Dew Point ( °F °C ) Humidity (%) Winds ( mph kmh ) Pressure ( in mb ) Visibility ( mi km ) Precip ( " mm )
12:14 am 00:14 Clear 32 undefined 21 -6 64 64 S 13 20 29.97 1015 10 16 N/A
12:34 am 00:34 Clear 32 undefined 21 -6 64 64 S 15 24 29.94 1014 10 16 N/A
12:54 am 00:54 Clear 32 undefined 21 -6 64 64 S 13 20 29.94 1014 10 16 N/A
1:14 am 01:14 Clear 32 undefined 21 -6 64 64 S 12 19 29.94 1014 10 16 N/A
1:35 am 01:35 Clear 32 undefined 21 -6 64 64 S 12 19 29.91 1013 10 16 N/A
1:54 am 01:54 Clear 32 undefined 21 -6 64 64 S 12 19 29.91 1013 10 16 N/A
2:14 am 02:14 Clear 32 undefined 21 -6 64 64 S 10 17 29.91 1013 10 16 N/A
2:34 am 02:34 Clear 30 -1 21 -6 69 69 S 10 17 29.91 1013 10 16 N/A
2:54 am 02:54 Clear 30 -1 21 -6 69 69 S 9 15 29.91 1013 10 16 N/A
3:15 am 03:15 Clear 30 -1 21 -6 69 69 S 10 17 29.88 1012 10 16 N/A
3:34 am 03:34 Clear 30 -1 21 -6 69 69 S 9 15 29.88 1012 10 16 N/A
3:55 am 03:55 Clear 30 -1 21 -6 69 69 S 12 19 29.88 1012 10 16 N/A
4:14 am 04:14 Clear 32 undefined 21 -6 64 64 S 12 19 29.85 1011 10 16 N/A
4:34 am 04:34 Clear 32 undefined 21 -6 64 64 S 12 19 29.85 1011 10 16 N/A
4:55 am 04:55 Clear 32 undefined 21 -6 64 64 S 10 17 29.85 1011 10 16 N/A
5:14 am 05:14 Clear 32 undefined 21 -6 64 64 S 10 17 29.83 1010 10 16 N/A
5:35 am 05:35 Clear 32 undefined 21 -6 64 64 S 10 17 29.83 1010 10 16 N/A
5:54 am 05:54 Clear 32 undefined 21 -6 64 64 S 12 19 29.83 1010 10 16 N/A
6:15 am 06:15 Clear 32 undefined 21 -6 64 64 S 12 19 29.83 1010 10 16 N/A
6:34 am 06:34 Clear 32 undefined 21 -6 64 64 S 12 19 29.80 1009 10 16 N/A
6:54 am 06:54 Clear 32 undefined 21 -6 64 64 S 13 20 29.80 1009 10 16 N/A
7:15 am 07:15 Clear 32 undefined 21 -6 64 64 S 10 17 29.83 1010 10 16 N/A
7:34 am 07:34 Clear 32 undefined 21 -6 64 64 S 9 15 29.83 1010 10 16 N/A
7:55 am 07:55 Mostly Cloudy 32 undefined 23 -5 69 69 S 8 13 29.80 1009 10 16 N/A
8:14 am 08:14 Cloudy 32 undefined 23 -5 69 69 S 8 13 29.80 1009 10 16 N/A
8:35 am 08:35 Cloudy 34 1 23 -5 65 65 S 9 15 29.77 1008 10 16 N/A
8:54 am 08:54 Cloudy 36 2 23 -5 60 60 S 9 15 29.77 1008 10 16 N/A
9:14 am 09:14 Cloudy 37 3 25 -4 60 60 SSW 10 17 29.77 1008 10 16 N/A
9:35 am 09:35 Cloudy 41 5 27 -3 57 57 SW 25 41 29.77 1008 10 16 N/A
9:54 am 09:54 Cloudy 41 5 25 -4 53 53 SW 21 33 29.77 1008 10 16 N/A
10:15 am 10:15 Cloudy 43 6 25 -4 49 49 SW 17 28 29.80 1009 10 16 N/A
10:34 am 10:34 Cloudy 43 6 25 -4 49 49 SW 23 37 29.80 1009 10 16 N/A
10:55 am 10:55 Cloudy 43 6 25 -4 49 49 SW 20 31 29.80 1009 10 16 N/A
11:14 am 11:14 Cloudy 43 6 25 -4 49 49 SW 18 30 29.80 1009 10 16 N/A
11:34 am 11:34 Cloudy 43 6 25 -4 49 49 SW 20 31 29.80 1009 10 16 N/A
11:55 am 11:55 Cloudy 43 6 23 -5 46 46 SW 21 33 29.80 1009 10 16 N/A
12:14 pm 12:14 Cloudy 43 6 25 -4 49 49 SW 22 35 29.80 1009 10 16 N/A
12:35 pm 12:35 Cloudy 43 6 25 -4 49 49 WSW 25 41 29.80 1009 10 16 N/A
12:54 pm 12:54 Cloudy 43 6 27 -3 53 53 SW 24 39 29.77 1008 10 16 N/A
1:14 pm 13:14 Cloudy 43 6 27 -3 53 53 SW 22 35 29.77 1008 10 16 N/A
1:35 pm 13:35 Cloudy 45 7 27 -3 49 49 SW 17 28 29.77 1008 10 16 N/A
1:54 pm 13:54 Cloudy 43 6 27 -3 53 53 WSW 17 28 29.77 1008 10 16 N/A
2:15 pm 14:15 Cloudy 43 6 28 -2 57 57 WSW 23 37 29.77 1008 10 16 N/A
2:34 pm 14:34 Cloudy 43 6 28 -2 57 57 SW 21 33 29.77 1008 10 16 N/A
2:54 pm 14:54 Cloudy 43 6 30 -1 61 61 WSW 24 39 29.77 1008 10 16 N/A
3:14 pm 15:14 Cloudy 43 6 30 -1 61 61 SW 16 26 29.77 1008 10 16 N/A
3:34 pm 15:34 Cloudy 43 6 30 -1 61 61 SW 17 28 29.77 1008 10 16 N/A
3:55 pm 15:55 Cloudy 43 6 32 undefined 66 66 WSW 15 24 29.80 1009 10 16 N/A
4:14 pm 16:14 Cloudy 43 6 32 undefined 66 66 SW 14 22 29.80 1009 10 16 N/A
4:35 pm 16:35 Cloudy 41 5 32 undefined 70 70 SW 16 26 29.80 1009 10 16 N/A
4:54 pm 16:54 Cloudy 41 5 32 undefined 70 70 SW 16 26 29.80 1009 10 16 N/A
5:14 pm 17:14 Cloudy 41 5 34 1 76 76 SW 15 24 29.83 1010 10 16 N/A
5:35 pm 17:35 Mostly Cloudy 41 5 34 1 76 76 SW 12 19 29.83 1010 10 16 N/A
5:54 pm 17:54 Mostly Cloudy 39 4 34 1 81 81 SW 10 17 29.83 1010 10 16 N/A
6:15 pm 18:15 Cloudy 39 4 34 1 81 81 SW 12 19 29.83 1010 10 16 N/A
6:34 pm 18:34 Cloudy 39 4 34 1 81 81 SW 12 19 29.85 1011 10 16 N/A
6:54 pm 18:54 Mostly Cloudy 39 4 34 1 81 81 SW 14 22 29.85 1011 10 16 N/A
7:14 pm 19:14 Partly Cloudy 37 3 34 1 87 87 SW 13 20 29.85 1011 10 16 N/A
7:34 pm 19:34 Mostly Cloudy 39 4 34 1 81 81 WSW 10 17 29.88 1012 10 16 N/A
7:55 pm 19:55 Cloudy 39 4 34 1 81 81 WSW 10 17 29.91 1013 10 16 N/A
8:15 pm 20:15 Cloudy 39 4 34 1 81 81 NW 15 24 29.91 1013 10 16 N/A
8:34 pm 20:34 Cloudy 37 3 28 -2 70 70 WNW 10 17 29.94 1014 10 16 N/A
8:55 pm 20:55 Mostly Cloudy 36 2 28 -2 75 75 NW 12 19 29.97 1015 10 16 N/A
9:14 pm 21:14 Cloudy 36 2 28 -2 75 75 NNW 12 19 29.97 1015 10 16 N/A
9:35 pm 21:35 Cloudy 34 1 27 -3 75 75 NNW 7 11 30.00 1016 10 16 N/A
9:54 pm 21:54 Mostly Cloudy 32 undefined 27 -3 80 80 NNW 8 13 30.00 1016 10 16 N/A
10:14 pm 22:14 Partly Cloudy 30 -1 25 -4 80 80 NNW 7 11 30.00 1016 10 16 N/A
10:34 pm 22:34 Clear 30 -1 25 -4 80 80 NW 3 6 30.03 1017 10 16 N/A
10:55 pm 22:55 Clear 30 -1 25 -4 80 80 NW 3 6 30.03 1017 10 16 N/A
11:14 pm 23:14 Clear 27 -3 25 -4 93 93 N N/A 30.03 1017 10 16 N/A
11:34 pm 23:34 Clear 28 -2 25 -4 86 86 WNW 3 6 30.03 1017 10 16 N/A
11:54 pm 23:54 Clear 30 -1 23 -5 75 75 N N/A 30.03 1017 10 16 N/A

Powered by AerisWeather